Time,TemperatureF,DewpointF,PressureIn,WindDirection,WindDirectionDegrees,WindSpeedMPH,WindSpeedGustMPH,Humidity,HourlyPrecipIn,Conditions,Clouds,dailyrainin,SoftwareType,DateUTC
2013-02-10 00:00:00,39.1,34.1,29.72,SE,136,8.0,20.0,82,0.00,OVC,SKC,0.00,WeatherDisplay:10.37,2013-02-10 06:00:00,
2013-02-10 00:05:00,38.9,34.2,29.71,ESE,102,7.3,11.5,83,0.00,OVC,SKC,0.00,WeatherDisplay:10.37,2013-02-10 06:05:00,
2013-02-10 00:10:00,38.8,34.1,29.70,ESE,113,6.4,10.4,83,0.00,OVC,SKC,0.00,WeatherDisplay:10.37,2013-02-10 06:10:00,
2013-02-10 00:15:00,38.7,34.0,29.71,ESE,123,7.0,14.0,83,0.00,OVC,SKC,0.00,WeatherDisplay:10.37,2013-02-10 06:15:00,
2013-02-10 00:20:00,38.8,34.1,29.70,ESE,115,7.1,11.5,83,0.00,OVC,SKC,0.00,WeatherDisplay:10.37,2013-02-10 06:20:00,
2013-02-10 00:25:00,38.8,34.1,29.69,ESE,121,8.7,11.5,83,0.00,-RA,SKC,0.00,WeatherDisplay:10.37,2013-02-10 06:25:00,
2013-02-10 00:30:00,38.8,34.1,29.69,ESE,119,9.0,15.0,83,0.00,-RA,SKC,0.00,WeatherDisplay:10.37,2013-02-10 06:30:00,
2013-02-10 00:35:00,38.8,34.1,29.69,SE,136,9.4,10.4,83,0.00,-RA,SKC,0.00,WeatherDisplay:10.37,2013-02-10 06:35:00,
2013-02-10 00:40:00,38.8,34.4,29.69,SE,129,12.2,17.3,84,0.00,-RA,SKC,0.00,WeatherDisplay:10.37,2013-02-10 06:40:00,
2013-02-10 00:45:00,38.8,34.4,29.68,SE,126,7.9,10.4,84,0.00,OVC,SKC,0.00,WeatherDisplay:10.37,2013-02-10 06:45:00,
2013-02-10 00:50:00,38.7,34.3,29.68,ESE,113,9.8,15.0,84,0.00,OVC,SKC,0.00,WeatherDisplay:10.37,2013-02-10 06:50:00,
2013-02-10 00:55:00,38.7,34.6,29.68,SE,128,10.3,13.8,85,0.00,OVC,SKC,0.00,WeatherDisplay:10.37,2013-02-10 06:55:00,
2013-02-10 01:00:00,38.5,34.7,29.69,South,170,5.2,8.1,86,0.00,OVC,SKC,0.00,WeatherDisplay:10.37,2013-02-10 07:00:00,
2013-02-10 01:05:00,38.5,34.7,29.68,SE,132,8.2,16.1,86,0.00,OVC,SKC,0.00,WeatherDisplay:10.37,2013-02-10 07:05:00,
2013-02-10 01:10:00,38.4,34.6,29.68,SE,125,7.9,9.2,86,0.00,OVC,SKC,0.00,WeatherDisplay:10.37,2013-02-10 07:10:00,
2013-02-10 01:16:00,38.4,34.9,29.67,SE,127,8.9,18.0,87,0.00,OVC,SKC,0.00,WeatherDisplay:10.37,2013-02-10 07:16:00,
2013-02-10 01:21:00,38.3,34.8,29.66,SE,129,8.8,12.0,87,0.00,OVC,SKC,0.00,WeatherDisplay:10.37,2013-02-10 07:21:00,
2013-02-10 01:26:00,38.2,35.0,29.67,SE,143,8.0,11.5,88,0.00,OVC,SKC,0.00,WeatherDisplay:10.37,2013-02-10 07:26:00,
2013-02-10 01:31:00,38.1,35.1,29.67,ESE,122,7.7,15.0,89,0.00,OVC,SKC,0.00,WeatherDisplay:10.37,2013-02-10 07:31:00,
2013-02-10 01:36:00,38.1,35.4,29.67,SSE,152,9.4,14.0,90,0.00,OVC,SKC,0.00,WeatherDisplay:10.37,2013-02-10 07:36:00,
2013-02-10 01:41:00,37.9,35.2,29.63,ESE,105,8.9,13.0,90,0.00,OVC,SKC,0.00,WeatherDisplay:10.37,2013-02-10 07:41:00,
2013-02-10 01:46:00,37.9,35.5,29.64,SE,143,6.7,10.4,91,0.00,-DZ,SKC,0.00,WeatherDisplay:10.37,2013-02-10 07:46:00,
2013-02-10 01:51:00,37.9,35.5,29.62,SE,124,9.8,13.8,91,0.00,-DZ,SKC,0.00,WeatherDisplay:10.37,2013-02-10 07:51:00,
2013-02-10 01:56:00,37.8,35.7,29.60,East,101,8.0,12.0,92,0.00,-DZ,SKC,0.00,WeatherDisplay:10.37,2013-02-10 07:56:00,
2013-02-10 02:01:00,37.8,35.7,29.61,SSE,153,7.5,10.4,92,0.00,-DZ,SKC,0.00,WeatherDisplay:10.37,2013-02-10 08:01:00,
2013-02-10 02:06:00,37.8,35.7,29.61,ESE,113,7.0,10.4,92,0.00,-RA,SKC,0.00,WeatherDisplay:10.37,2013-02-10 08:06:00,
2013-02-10 02:11:00,37.7,35.6,29.62,SE,131,9.3,12.7,92,0.00,-RA,SKC,0.00,WeatherDisplay:10.37,2013-02-10 08:11:00,
2013-02-10 02:16:00,37.8,35.7,29.63,ESE,108,7.8,16.0,92,0.00,-RA,SKC,0.00,WeatherDisplay:10.37,2013-02-10 08:16:00,
2013-02-10 02:21:00,37.8,36.0,29.62,SE,134,7.6,11.5,93,0.00,-RA,SKC,0.00,WeatherDisplay:10.37,2013-02-10 08:21:00,
2013-02-10 02:26:00,37.9,36.1,29.62,SE,129,8.6,12.7,93,0.00,OVC,SKC,0.00,WeatherDisplay:10.37,2013-02-10 08:26:00,
2013-02-10 02:31:00,37.9,36.1,29.60,ESE,105,8.0,11.5,93,0.00,OVC,SKC,0.00,WeatherDisplay:10.37,2013-02-10 08:31:00,
2013-02-10 02:36:00,37.9,36.1,29.60,SE,135,10.6,13.8,93,0.00,OVC,SKC,0.00,WeatherDisplay:10.37,2013-02-10 08:36:00,
2013-02-10 02:41:00,38.0,36.4,29.60,ESE,118,8.0,11.5,94,0.01,RA,SKC,0.01,WeatherDisplay:10.37,2013-02-10 08:41:00,
2013-02-10 02:46:00,38.0,36.4,29.59,SE,129,9.6,13.8,94,0.01,RA,SKC,0.01,WeatherDisplay:10.37,2013-02-10 08:46:00,
2013-02-10 02:51:00,38.0,36.4,29.59,SSE,167,6.3,10.4,94,0.01,OVC,SKC,0.01,WeatherDisplay:10.37,2013-02-10 08:51:00,
2013-02-10 02:56:00,38.0,36.4,29.57,SE,136,9.2,16.0,94,0.01,OVC,SKC,0.01,WeatherDisplay:10.37,2013-02-10 08:56:00,
2013-02-10 03:01:00,38.0,36.7,29.57,ESE,109,10.0,15.0,95,0.01,OVC,SKC,0.01,WeatherDisplay:10.37,2013-02-10 09:01:00,
2013-02-10 03:06:00,38.1,36.8,29.57,ESE,122,10.8,17.3,95,0.01,OVC,SKC,0.01,WeatherDisplay:10.37,2013-02-10 09:06:00,
2013-02-10 03:11:00,38.2,36.9,29.56,SE,134,14.0,19.6,95,0.01,OVC,SKC,0.01,WeatherDisplay:10.37,2013-02-10 09:11:00,
2013-02-10 03:16:00,38.2,36.9,29.55,SE,124,11.3,16.1,95,0.01,OVC,SKC,0.01,WeatherDisplay:10.37,2013-02-10 09:16:00,
2013-02-10 03:21:00,38.3,37.0,29.55,ESE,122,14.2,18.4,95,0.01,OVC,SKC,0.01,WeatherDisplay:10.37,2013-02-10 09:21:00,
2013-02-10 03:26:00,38.2,37.2,29.54,ESE,113,8.2,12.7,96,0.01,OVC,SKC,0.01,WeatherDisplay:10.37,2013-02-10 09:26:00,
2013-02-10 03:31:00,38.3,37.3,29.53,SE,143,11.0,16.1,96,0.01,OVC,SKC,0.01,WeatherDisplay:10.37,2013-02-10 09:31:00,
2013-02-10 03:36:00,38.3,37.3,29.53,SE,127,12.9,20.7,96,0.01,OVC,SKC,0.01,WeatherDisplay:10.37,2013-02-10 09:36:00,
2013-02-10 03:41:00,38.2,37.2,29.52,ESE,121,10.6,18.4,96,0.00,OVC,SKC,0.01,WeatherDisplay:10.37,2013-02-10 09:41:00,
2013-02-10 03:46:00,38.2,37.2,29.52,ESE,110,10.4,16.1,96,0.00,-RA,SKC,0.01,WeatherDisplay:10.37,2013-02-10 09:46:00,
2013-02-10 03:51:00,38.2,37.2,29.50,SE,132,13.1,21.9,96,0.00,-RA,SKC,0.01,WeatherDisplay:10.37,2013-02-10 09:51:00,
2013-02-10 03:56:00,38.3,37.3,29.49,ESE,113,13.4,18.4,96,0.00,-RA,SKC,0.01,WeatherDisplay:10.37,2013-02-10 09:56:00,
2013-02-10 04:01:00,38.3,37.3,29.48,ESE,109,17.7,24.2,96,0.00,-RA,SKC,0.01,WeatherDisplay:10.37,2013-02-10 10:01:00,
2013-02-10 04:06:00,38.4,37.4,29.48,SE,125,14.3,17.3,96,0.00,OVC,SKC,0.01,WeatherDisplay:10.37,2013-02-10 10:06:00,
2013-02-10 04:11:00,38.5,37.7,29.48,SE,126,13.6,20.7,97,0.00,OVC,SKC,0.01,WeatherDisplay:10.37,2013-02-10 10:11:00,
2013-02-10 04:16:00,38.5,37.7,29.48,ESE,107,12.8,17.3,97,0.00,OVC,SKC,0.01,WeatherDisplay:10.37,2013-02-10 10:16:00,
2013-02-10 04:21:00,38.6,37.6,29.47,SE,135,13.4,18.4,96,0.00,OVC,SKC,0.01,WeatherDisplay:10.37,2013-02-10 10:21:00,
2013-02-10 04:26:00,38.5,37.5,29.47,SE,142,13.7,19.0,96,0.00,-RA,SKC,0.01,WeatherDisplay:10.37,2013-02-10 10:26:00,
2013-02-10 04:31:00,38.6,37.8,29.47,ESE,116,10.0,20.7,97,0.00,-RA,SKC,0.01,WeatherDisplay:10.37,2013-02-10 10:31:00,
2013-02-10 04:36:00,38.6,37.8,29.45,ESE,118,8.5,16.1,97,0.00,-RA,SKC,0.01,WeatherDisplay:10.37,2013-02-10 10:36:00,
2013-02-10 04:41:00,38.7,37.9,29.44,SE,141,10.3,12.7,97,0.00,-RA,SKC,0.01,WeatherDisplay:10.37,2013-02-10 10:41:00,
2013-02-10 04:46:00,38.7,37.9,29.42,ESE,111,16.4,21.0,97,0.00,OVC,SKC,0.01,WeatherDisplay:10.37,2013-02-10 10:46:00,
2013-02-10 04:51:00,38.8,38.0,29.43,ESE,112,11.6,20.7,97,0.00,OVC,SKC,0.01,WeatherDisplay:10.37,2013-02-10 10:51:00,
2013-02-10 04:56:00,38.9,38.1,29.42,SE,131,10.8,15.0,97,0.00,OVC,SKC,0.01,WeatherDisplay:10.37,2013-02-10 10:56:00,
2013-02-10 05:01:00,39.0,38.2,29.43,SE,124,12.7,17.3,97,0.00,OVC,SKC,0.01,WeatherDisplay:10.37,2013-02-10 11:01:00,
2013-02-10 05:06:00,39.1,38.3,29.42,ESE,121,11.1,20.7,97,0.00,-RA,SKC,0.01,WeatherDisplay:10.37,2013-02-10 11:06:00,
2013-02-10 05:11:00,39.2,38.4,29.43,SE,140,13.8,19.6,97,0.00,-RA,SKC,0.01,WeatherDisplay:10.37,2013-02-10 11:11:00,
2013-02-10 05:16:00,39.2,38.4,29.42,SE,135,13.1,19.6,97,0.00,-RA,SKC,0.01,WeatherDisplay:10.37,2013-02-10 11:16:00,
2013-02-10 05:21:00,39.3,38.5,29.42,ESE,121,10.3,19.6,97,0.00,-RA,SKC,0.01,WeatherDisplay:10.37,2013-02-10 11:21:00,
2013-02-10 05:26:00,39.3,38.5,29.42,SE,138,9.8,18.4,97,0.00,OVC,SKC,0.01,WeatherDisplay:10.37,2013-02-10 11:26:00,
2013-02-10 05:31:00,39.3,38.5,29.41,SE,129,9.3,9.3,97,0.00,OVC,SKC,0.01,WeatherDisplay:10.37,2013-02-10 11:31:00,
2013-02-10 05:36:00,39.5,38.7,29.41,SE,139,12.9,19.6,97,0.00,OVC,SKC,0.01,WeatherDisplay:10.37,2013-02-10 11:36:00,
2013-02-10 05:41:00,39.5,38.7,29.41,SE,132,10.3,13.8,97,0.00,OVC,SKC,0.01,WeatherDisplay:10.37,2013-02-10 11:41:00,
2013-02-10 05:46:00,39.6,38.8,29.42,SSW,198,10.2,19.6,97,0.01,-RA,SKC,0.02,WeatherDisplay:10.37,2013-02-10 11:46:00,
2013-02-10 05:51:00,39.7,38.9,29.42,South,172,5.3,12.7,97,0.01,-RA,SKC,0.02,WeatherDisplay:10.37,2013-02-10 11:51:00,
2013-02-10 05:56:00,39.7,38.9,29.42,SSE,164,11.6,15.0,97,0.01,-RA,SKC,0.02,WeatherDisplay:10.37,2013-02-10 11:56:00,
2013-02-10 06:01:00,39.7,38.9,29.41,SE,141,8.6,11.5,97,0.01,-RA,SKC,0.02,WeatherDisplay:10.37,2013-02-10 12:01:00,
2013-02-10 06:06:00,39.6,38.8,29.41,SE,132,6.2,11.5,97,0.01,OVC,SKC,0.02,WeatherDisplay:10.37,2013-02-10 12:06:00,
2013-02-10 06:11:00,39.6,38.8,29.42,SSE,156,6.9,10.4,97,0.01,OVC,SKC,0.02,WeatherDisplay:10.37,2013-02-10 12:11:00,
2013-02-10 06:16:00,39.7,38.9,29.40,ESE,111,5.8,9.0,97,0.01,OVC,SKC,0.02,WeatherDisplay:10.37,2013-02-10 12:16:00,
2013-02-10 06:21:00,39.6,38.8,29.39,ESE,115,7.9,11.5,97,0.01,-RA,SKC,0.02,WeatherDisplay:10.37,2013-02-10 12:21:00,
2013-02-10 06:26:00,39.7,38.9,29.39,SE,132,6.5,8.1,97,0.01,-RA,SKC,0.02,WeatherDisplay:10.37,2013-02-10 12:26:00,
2013-02-10 06:31:00,39.9,39.1,29.40,South,188,7.7,15.0,97,0.01,-RA,SKC,0.02,WeatherDisplay:10.37,2013-02-10 12:31:00,
2013-02-10 06:36:00,40.1,39.6,29.41,SSE,161,9.1,11.5,98,0.01,-RA,SKC,0.02,WeatherDisplay:10.37,2013-02-10 12:36:00,
2013-02-10 06:41:00,40.3,39.8,29.40,SE,146,6.9,13.0,98,0.01,OVC,SKC,0.02,WeatherDisplay:10.37,2013-02-10 12:41:00,
2013-02-10 06:46:00,40.4,39.9,29.40,SE,135,6.4,8.1,98,0.00,OVC,SKC,0.02,WeatherDisplay:10.37,2013-02-10 12:46:00,
2013-02-10 06:51:00,40.5,39.7,29.40,SE,137,7.4,11.5,97,0.00,OVC,SKC,0.02,WeatherDisplay:10.37,2013-02-10 12:51:00,
2013-02-10 06:56:00,40.6,39.8,29.40,SE,136,5.7,8.1,97,0.00,OVC,SKC,0.02,WeatherDisplay:10.37,2013-02-10 12:56:00,
2013-02-10 07:01:00,40.7,40.2,29.40,SSE,159,6.7,11.5,98,0.00,-DZ,SKC,0.02,WeatherDisplay:10.37,2013-02-10 13:01:00,
2013-02-10 07:06:00,40.9,40.4,29.39,SE,140,6.0,10.4,98,0.00,-DZ,SKC,0.02,WeatherDisplay:10.37,2013-02-10 13:06:00,
2013-02-10 07:11:00,41.0,40.5,29.39,SSE,159,7.6,9.2,98,0.00,-DZ,SKC,0.02,WeatherDisplay:10.37,2013-02-10 13:11:00,
2013-02-10 07:16:00,41.1,40.6,29.39,SE,132,8.8,12.7,98,0.00,-DZ,SKC,0.02,WeatherDisplay:10.37,2013-02-10 13:16:00,
2013-02-10 07:21:00,41.2,40.4,29.39,ESE,108,6.0,9.2,97,0.00,OVC,SKC,0.02,WeatherDisplay:10.37,2013-02-10 13:21:00,
2013-02-10 07:27:00,41.4,40.9,29.38,ESE,122,10.9,15.0,98,0.00,OVC,SKC,0.02,WeatherDisplay:10.37,2013-02-10 13:27:00,
2013-02-10 07:32:00,41.5,40.7,29.38,ESE,122,7.0,10.4,97,0.00,OVC,SKC,0.02,WeatherDisplay:10.37,2013-02-10 13:32:00,
2013-02-10 07:37:00,41.6,40.8,29.37,SSE,151,4.6,8.1,97,0.00,OVC,SKC,0.02,WeatherDisplay:10.37,2013-02-10 13:37:00,
2013-02-10 07:42:00,41.7,40.9,29.37,SSE,148,8.0,11.5,97,0.00,OVC,SKC,0.02,WeatherDisplay:10.37,2013-02-10 13:42:00,
2013-02-10 07:47:00,41.8,41.0,29.37,SSE,150,9.2,11.5,97,0.00,OVC,SKC,0.02,WeatherDisplay:10.37,2013-02-10 13:47:00,
2013-02-10 07:52:00,41.9,41.1,29.37,ESE,116,9.2,13.8,97,0.00,OVC,SKC,0.02,WeatherDisplay:10.37,2013-02-10 13:52:00,
2013-02-10 07:57:00,42.0,41.2,29.36,SE,125,10.7,16.0,97,0.00,OVC,SKC,0.02,WeatherDisplay:10.37,2013-02-10 13:57:00,
2013-02-10 08:02:00,42.0,41.2,29.36,SSE,150,6.5,8.1,97,0.00,OVC,SKC,0.02,WeatherDisplay:10.37,2013-02-10 14:02:00,
2013-02-10 08:07:00,42.0,41.2,29.35,SE,124,8.3,11.5,97,0.00,OVC,SKC,0.02,WeatherDisplay:10.37,2013-02-10 14:07:00,
2013-02-10 08:12:00,42.1,41.0,29.35,SE,131,8.9,13.8,96,0.00,OVC,SKC,0.02,WeatherDisplay:10.37,2013-02-10 14:12:00,
2013-02-10 08:17:00,42.2,41.1,29.34,ESE,115,9.0,11.5,96,0.00,OVC,SKC,0.02,WeatherDisplay:10.37,2013-02-10 14:17:00,
2013-02-10 08:22:00,42.3,41.2,29.34,SE,128,8.6,12.7,96,0.00,OVC,SKC,0.02,WeatherDisplay:10.37,2013-02-10 14:22:00,
2013-02-10 08:27:00,42.4,41.3,29.33,ESE,117,10.2,16.1,96,0.00,OVC,SKC,0.02,WeatherDisplay:10.37,2013-02-10 14:27:00,
2013-02-10 08:32:00,42.6,41.5,29.32,ESE,117,11.4,16.1,96,0.00,OVC,SKC,0.02,WeatherDisplay:10.37,2013-02-10 14:32:00,
2013-02-10 08:37:00,42.7,41.4,29.32,SSE,150,11.2,12.7,95,0.00,OVC,SKC,0.02,WeatherDisplay:10.37,2013-02-10 14:37:00,
2013-02-10 08:42:00,42.8,41.5,29.32,SE,129,8.7,12.7,95,0.00,OVC,SKC,0.02,WeatherDisplay:10.37,2013-02-10 14:42:00,
2013-02-10 08:47:00,43.1,41.8,29.32,SSE,167,11.4,19.6,95,0.00,OVC,SKC,0.02,WeatherDisplay:10.37,2013-02-10 14:47:00,
2013-02-10 08:52:00,43.2,41.9,29.31,SE,124,9.9,15.0,95,0.00,OVC,SKC,0.02,WeatherDisplay:10.37,2013-02-10 14:52:00,
2013-02-10 08:57:00,43.4,42.1,29.31,SSE,158,10.1,13.0,95,0.00,OVC,SKC,0.02,WeatherDisplay:10.37,2013-02-10 14:57:00,
2013-02-10 09:02:00,43.5,41.9,29.31,SSW,198,10.4,11.5,94,0.00,OVC,SKC,0.02,WeatherDisplay:10.37,2013-02-10 15:02:00,
2013-02-10 09:07:00,43.7,42.1,29.30,SSE,164,12.1,19.6,94,0.00,OVC,SKC,0.02,WeatherDisplay:10.37,2013-02-10 15:07:00,
2013-02-10 09:12:00,43.9,42.0,29.29,South,169,11.3,12.7,93,0.00,OVC,SKC,0.02,WeatherDisplay:10.37,2013-02-10 15:12:00,
2013-02-10 09:17:00,43.9,42.0,29.29,SSW,195,7.8,10.4,93,0.00,OVC,SKC,0.02,WeatherDisplay:10.37,2013-02-10 15:17:00,
2013-02-10 09:22:00,43.9,42.0,29.29,SSE,164,6.8,10.4,93,0.00,OVC,SKC,0.02,WeatherDisplay:10.37,2013-02-10 15:22:00,
2013-02-10 09:27:00,43.9,41.7,29.29,SW,219,3.8,5.8,92,0.00,OVC,SKC,0.02,WeatherDisplay:10.37,2013-02-10 15:27:00,
2013-02-10 09:32:00,43.9,41.7,29.28,SSE,161,6.0,9.2,92,0.00,OVC,SKC,0.02,WeatherDisplay:10.37,2013-02-10 15:32:00,
2013-02-10 09:37:00,43.9,41.7,29.28,SSE,158,8.7,12.7,92,0.00,OVC,SKC,0.02,WeatherDisplay:10.37,2013-02-10 15:37:00,
2013-02-10 09:42:00,44.0,41.5,29.27,SE,146,18.1,27.6,91,0.00,OVC,SKC,0.02,WeatherDisplay:10.37,2013-02-10 15:42:00,
2013-02-10 09:47:00,44.3,41.0,29.28,South,176,7.9,11.5,88,0.00,OVC,SKC,0.02,WeatherDisplay:10.37,2013-02-10 15:47:00,
2013-02-10 09:52:00,44.5,40.6,29.27,SW,230,11.4,18.4,86,0.00,OVC,SKC,0.02,WeatherDisplay:10.37,2013-02-10 15:52:00,
2013-02-10 09:57:00,44.5,39.0,29.27,South,180,8.7,11.5,81,0.00,OVC,SKC,0.02,WeatherDisplay:10.37,2013-02-10 15:57:00,
2013-02-10 10:02:00,45.1,39.3,29.27,SSE,157,9.9,17.0,80,0.00,OVC,SKC,0.02,WeatherDisplay:10.37,2013-02-10 16:02:00,
2013-02-10 10:07:00,45.6,38.8,29.27,SSW,201,6.6,11.5,77,0.00,OVC,SKC,0.02,WeatherDisplay:10.37,2013-02-10 16:07:00,
2013-02-10 10:13:00,45.7,38.2,29.27,SW,222,8.3,15.0,75,0.00,OVC,SKC,0.02,WeatherDisplay:10.37,2013-02-10 16:13:00,
2013-02-10 10:18:00,44.8,37.0,29.27,South,179,14.1,21.9,74,0.00,OVC,SKC,0.02,WeatherDisplay:10.37,2013-02-10 16:18:00,
2013-02-10 10:23:00,43.9,36.5,29.27,SW,226,13.8,20.7,75,0.00,BKN,SKC,0.02,WeatherDisplay:10.37,2013-02-10 16:23:00,
2013-02-10 10:28:00,43.5,36.8,29.28,SE,136,11.3,23.0,77,0.00,BKN,SKC,0.02,WeatherDisplay:10.37,2013-02-10 16:28:00,
2013-02-10 10:33:00,43.1,36.4,29.28,South,179,11.1,15.0,77,0.00,BKN,SKC,0.02,WeatherDisplay:10.37,2013-02-10 16:33:00,
2013-02-10 10:38:00,42.7,36.0,29.28,SSW,211,8.8,12.7,77,0.00,BKN,SKC,0.02,WeatherDisplay:10.37,2013-02-10 16:38:00,
2013-02-10 10:43:00,42.2,35.8,29.28,ESE,117,7.8,13.8,78,0.00,BKN,SKC,0.02,WeatherDisplay:10.37,2013-02-10 16:43:00,
2013-02-10 10:48:00,41.5,35.2,29.28,SW,235,8.4,19.6,78,0.00,BKN,SKC,0.02,WeatherDisplay:10.37,2013-02-10 16:48:00,
2013-02-10 10:53:00,41.0,34.3,29.28,SSE,153,10.3,18.4,77,0.00,BKN,SKC,0.02,WeatherDisplay:10.37,2013-02-10 16:53:00,
2013-02-10 10:58:00,40.4,34.1,29.28,SSW,197,7.2,12.7,78,0.00,BKN,SKC,0.02,WeatherDisplay:10.37,2013-02-10 16:58:00,
2013-02-10 11:03:00,39.7,33.1,29.29,SW,224,13.0,15.0,77,0.00,OVC,SKC,0.02,WeatherDisplay:10.37,2013-02-10 17:03:00,
2013-02-10 11:08:00,39.3,32.7,29.29,South,183,10.2,16.1,77,0.00,OVC,SKC,0.02,WeatherDisplay:10.37,2013-02-10 17:08:00,
2013-02-10 11:13:00,39.2,32.6,29.29,SSW,212,11.8,16.1,77,0.00,OVC,SKC,0.02,WeatherDisplay:10.37,2013-02-10 17:13:00,
2013-02-10 11:18:00,38.9,32.3,29.29,SW,225,10.4,15.0,77,0.00,OVC,SKC,0.02,WeatherDisplay:10.37,2013-02-10 17:18:00,
2013-02-10 11:23:00,38.8,32.5,29.29,South,186,8.5,15.0,78,0.00,OVC,SKC,0.02,WeatherDisplay:10.37,2013-02-10 17:23:00,
2013-02-10 11:28:00,38.8,32.8,29.29,SW,219,6.4,8.1,79,0.00,OVC,SKC,0.02,WeatherDisplay:10.37,2013-02-10 17:28:00,
2013-02-10 11:33:00,38.7,32.4,29.29,South,190,8.9,16.1,78,0.00,OVC,SKC,0.02,WeatherDisplay:10.37,2013-02-10 17:33:00,
2013-02-10 11:38:00,38.6,32.6,29.29,SSW,205,8.0,12.7,79,0.00,OVC,SKC,0.02,WeatherDisplay:10.37,2013-02-10 17:38:00,
2013-02-10 11:43:00,38.4,32.5,29.29,SSW,210,9.3,15.0,79,0.00,OVC,SKC,0.02,WeatherDisplay:10.37,2013-02-10 17:43:00,
2013-02-10 11:48:00,38.3,32.4,29.29,South,188,8.9,12.7,79,0.00,OVC,SKC,0.02,WeatherDisplay:10.37,2013-02-10 17:48:00,
2013-02-10 11:53:00,38.2,32.3,29.29,SSW,200,11.2,19.6,79,0.00,OVC,SKC,0.02,WeatherDisplay:10.37,2013-02-10 17:53:00,
2013-02-10 11:58:00,38.1,31.8,29.29,SSW,194,11.6,19.6,78,0.00,OVC,SKC,0.02,WeatherDisplay:10.37,2013-02-10 17:58:00,
2013-02-10 12:03:00,38.1,31.8,29.29,South,176,14.4,18.4,78,0.00,OVC,SKC,0.02,WeatherDisplay:10.37,2013-02-10 18:03:00,
2013-02-10 12:08:00,38.0,31.7,29.29,SSW,212,12.9,18.4,78,0.00,OVC,SKC,0.02,WeatherDisplay:10.37,2013-02-10 18:08:00,
2013-02-10 12:13:00,37.9,31.7,29.29,SSW,200,10.9,12.7,78,0.00,OVC,SKC,0.02,WeatherDisplay:10.37,2013-02-10 18:13:00,
2013-02-10 12:18:00,38.0,31.7,29.28,SSW,207,10.1,19.6,78,0.00,OVC,SKC,0.02,WeatherDisplay:10.37,2013-02-10 18:18:00,
2013-02-10 12:23:00,38.0,32.1,29.28,South,183,9.1,13.0,79,0.00,OVC,SKC,0.02,WeatherDisplay:10.37,2013-02-10 18:23:00,
2013-02-10 12:28:00,37.9,32.0,29.28,SSE,155,8.1,18.4,79,0.00,OVC,SKC,0.02,WeatherDisplay:10.37,2013-02-10 18:28:00,
2013-02-10 12:33:00,37.7,32.1,29.28,SW,218,5.2,13.0,80,0.00,OVC,SKC,0.02,WeatherDisplay:10.37,2013-02-10 18:33:00,
2013-02-10 12:38:00,37.5,31.9,29.28,SE,139,10.8,17.3,80,0.00,OVC,SKC,0.02,WeatherDisplay:10.37,2013-02-10 18:38:00,
2013-02-10 12:43:00,37.3,31.7,29.28,South,190,10.9,19.6,80,0.00,OVC,SKC,0.02,WeatherDisplay:10.37,2013-02-10 18:43:00,
2013-02-10 12:48:00,37.3,32.0,29.28,SSW,195,9.8,12.7,81,0.00,OVC,SKC,0.02,WeatherDisplay:10.37,2013-02-10 18:48:00,
2013-02-10 12:53:00,37.2,31.9,29.28,South,169,9.7,18.4,81,0.00,OVC,SKC,0.02,WeatherDisplay:10.37,2013-02-10 18:53:00,
2013-02-10 12:58:00,37.3,32.3,29.28,SSW,197,10.0,12.7,82,0.00,OVC,SKC,0.02,WeatherDisplay:10.37,2013-02-10 18:58:00,
2013-02-10 13:03:00,37.3,32.3,29.28,SSE,166,7.7,19.6,82,0.00,OVC,SKC,0.02,WeatherDisplay:10.37,2013-02-10 19:03:00,
2013-02-10 13:08:00,37.4,32.7,29.28,South,191,7.1,13.8,83,0.00,OVC,SKC,0.02,WeatherDisplay:10.37,2013-02-10 19:08:00,
2013-02-10 13:13:00,37.5,32.8,29.28,SSW,200,7.1,13.8,83,0.00,OVC,SKC,0.02,WeatherDisplay:10.37,2013-02-10 19:13:00,
2013-02-10 13:18:00,37.5,33.1,29.28,SE,145,5.8,11.5,84,0.00,OVC,SKC,0.02,WeatherDisplay:10.37,2013-02-10 19:18:00,
2013-02-10 13:23:00,37.5,33.1,29.28,SSW,208,11.5,12.7,84,0.00,OVC,SKC,0.02,WeatherDisplay:10.37,2013-02-10 19:23:00,
2013-02-10 13:28:00,37.5,33.1,29.28,South,191,9.5,18.4,84,0.00,OVC,SKC,0.02,WeatherDisplay:10.37,2013-02-10 19:28:00,
2013-02-10 13:33:00,37.4,33.3,29.27,SSW,195,3.7,10.4,85,0.00,OVC,SKC,0.02,WeatherDisplay:10.37,2013-02-10 19:33:00,
2013-02-10 13:38:00,37.5,33.7,29.28,SSW,204,5.6,8.1,86,0.00,OVC,SKC,0.02,WeatherDisplay:10.37,2013-02-10 19:38:00,
2013-02-10 13:43:00,37.4,33.9,29.28,South,181,8.9,10.4,87,0.00,-DZ,SKC,0.02,WeatherDisplay:10.37,2013-02-10 19:43:00,
2013-02-10 13:48:00,37.4,34.2,29.28,WSW,243,4.0,10.4,88,0.00,-DZ,SKC,0.02,WeatherDisplay:10.37,2013-02-10 19:48:00,
2013-02-10 13:53:00,37.3,34.4,29.28,South,186,6.2,10.4,89,0.00,-DZ,SKC,0.02,WeatherDisplay:10.37,2013-02-10 19:53:00,
2013-02-10 13:58:00,37.3,34.4,29.28,SW,225,8.0,11.5,89,0.00,-DZ,SKC,0.02,WeatherDisplay:10.37,2013-02-10 19:58:00,
2013-02-10 14:03:00,37.3,34.6,29.28,SSW,209,6.4,11.5,90,0.00,-DZ,SKC,0.02,WeatherDisplay:10.37,2013-02-10 20:03:00,
2013-02-10 14:08:00,37.2,34.5,29.28,SSW,201,3.9,5.8,90,0.00,-DZ,SKC,0.02,WeatherDisplay:10.37,2013-02-10 20:08:00,
2013-02-10 14:13:00,37.3,34.9,29.28,SSW,212,3.4,4.6,91,0.00,-DZ,SKC,0.02,WeatherDisplay:10.37,2013-02-10 20:13:00,
2013-02-10 14:18:00,37.3,35.2,29.28,SW,236,1.6,4.0,92,0.00,-DZ,SKC,0.02,WeatherDisplay:10.37,2013-02-10 20:18:00,
2013-02-10 14:23:00,37.3,35.2,29.28,SSW,193,5.9,10.4,92,0.00,-DZ,SKC,0.02,WeatherDisplay:10.37,2013-02-10 20:23:00,
2013-02-10 14:28:00,37.3,35.5,29.29,SW,214,5.8,9.2,93,0.00,-DZ,SKC,0.02,WeatherDisplay:10.37,2013-02-10 20:28:00,
2013-02-10 14:33:00,37.5,35.7,29.29,SW,226,4.7,8.1,93,0.00,-DZ,SKC,0.02,WeatherDisplay:10.37,2013-02-10 20:33:00,
2013-02-10 14:38:00,37.5,35.7,29.29,SW,217,4.9,6.9,93,0.00,-DZ,SKC,0.02,WeatherDisplay:10.37,2013-02-10 20:38:00,
2013-02-10 14:43:00,37.6,36.0,29.29,WSW,255,4.9,10.0,94,0.00,-DZ,SKC,0.02,WeatherDisplay:10.37,2013-02-10 20:43:00,
2013-02-10 14:48:00,37.7,36.1,29.30,West,271,3.8,5.8,94,0.00,-DZ,SKC,0.02,WeatherDisplay:10.37,2013-02-10 20:48:00,
2013-02-10 14:53:00,37.8,36.2,29.30,SSW,200,6.2,9.2,94,0.00,-DZ,SKC,0.02,WeatherDisplay:10.37,2013-02-10 20:53:00,
2013-02-10 14:58:00,37.9,36.3,29.31,WSW,257,11.2,17.0,94,0.00,-DZ,SKC,0.02,WeatherDisplay:10.37,2013-02-10 20:58:00,
2013-02-10 15:03:00,38.1,36.3,29.31,WSW,238,9.3,12.7,93,0.00,OVC,SKC,0.02,WeatherDisplay:10.37,2013-02-10 21:03:00,
2013-02-10 15:08:00,38.0,36.2,29.32,WNW,296,8.7,15.0,93,0.00,OVC,SKC,0.02,WeatherDisplay:10.37,2013-02-10 21:08:00,
2013-02-10 15:13:00,38.0,36.2,29.32,WSW,257,6.5,11.5,93,0.00,OVC,SKC,0.02,WeatherDisplay:10.37,2013-02-10 21:13:00,
2013-02-10 15:18:00,38.1,36.0,29.32,West,276,10.0,17.3,92,0.00,OVC,SKC,0.02,WeatherDisplay:10.37,2013-02-10 21:18:00,
2013-02-10 15:24:00,38.3,35.9,29.33,WNW,282,9.9,12.7,91,0.00,OVC,SKC,0.02,WeatherDisplay:10.37,2013-02-10 21:24:00,
2013-02-10 15:29:00,38.5,35.3,29.34,West,273,12.6,19.6,88,0.00,OVC,SKC,0.02,WeatherDisplay:10.37,2013-02-10 21:29:00,
2013-02-10 15:34:00,38.5,34.7,29.34,WNW,300,16.4,23.0,86,0.00,OVC,SKC,0.02,WeatherDisplay:10.37,2013-02-10 21:34:00,
2013-02-10 15:39:00,38.4,34.3,29.35,NW,312,12.1,18.4,85,0.00,OVC,SKC,0.02,WeatherDisplay:10.37,2013-02-10 21:39:00,
2013-02-10 15:44:00,38.3,34.2,29.35,WNW,290,9.3,11.5,85,0.00,OVC,SKC,0.02,WeatherDisplay:10.37,2013-02-10 21:44:00,
2013-02-10 15:49:00,38.2,34.1,29.36,WNW,300,8.3,19.6,85,0.00,OVC,SKC,0.02,WeatherDisplay:10.37,2013-02-10 21:49:00,
2013-02-10 15:54:00,38.0,33.9,29.37,WNW,290,7.8,19.6,85,0.00,OVC,SKC,0.02,WeatherDisplay:10.37,2013-02-10 21:54:00,
2013-02-10 15:59:00,37.9,33.5,29.37,NW,307,11.4,19.6,84,0.00,OVC,SKC,0.02,WeatherDisplay:10.37,2013-02-10 21:59:00,
2013-02-10 16:04:00,37.7,33.3,29.38,WNW,295,10.3,18.4,84,0.00,OVC,SKC,0.02,WeatherDisplay:10.37,2013-02-10 22:04:00,
2013-02-10 16:09:00,37.5,33.1,29.39,WNW,293,18.5,20.7,84,0.00,OVC,SKC,0.02,WeatherDisplay:10.37,2013-02-10 22:09:00,
2013-02-10 16:14:00,37.1,32.4,29.40,WNW,288,8.5,16.1,83,0.00,OVC,SKC,0.02,WeatherDisplay:10.37,2013-02-10 22:14:00,
2013-02-10 16:19:00,36.8,32.1,29.41,WNW,284,12.7,21.9,83,0.00,OVC,SKC,0.02,WeatherDisplay:10.37,2013-02-10 22:19:00,
2013-02-10 16:24:00,36.3,31.6,29.42,West,262,12.5,24.2,83,0.00,OVC,SKC,0.02,WeatherDisplay:10.37,2013-02-10 22:24:00,
2013-02-10 16:29:00,35.9,30.6,29.42,WNW,285,15.1,22.0,81,0.00,OVC,SKC,0.02,WeatherDisplay:10.37,2013-02-10 22:29:00,
2013-02-10 16:34:00,35.4,30.1,29.43,NW,307,11.3,21.9,81,0.00,OVC,SKC,0.02,WeatherDisplay:10.37,2013-02-10 22:34:00,
2013-02-10 16:39:00,34.4,30.1,29.44,NW,315,8.8,16.1,84,0.00,OVC,SKC,0.02,WeatherDisplay:10.37,2013-02-10 22:39:00,
2013-02-10 16:44:00,33.9,30.2,29.44,WNW,291,13.1,19.6,86,0.00,OVC,SKC,0.02,WeatherDisplay:10.37,2013-02-10 22:44:00,
2013-02-10 16:49:00,33.6,29.9,29.45,WNW,287,11.3,27.6,86,0.00,OVC,SKC,0.02,WeatherDisplay:10.37,2013-02-10 22:49:00,
2013-02-10 16:54:00,33.5,29.8,29.45,NW,309,14.8,20.7,86,0.00,OVC,SKC,0.02,WeatherDisplay:10.37,2013-02-10 22:54:00,
2013-02-10 16:59:00,33.5,29.8,29.46,WNW,296,11.3,11.5,86,0.00,OVC,SKC,0.02,WeatherDisplay:10.37,2013-02-10 22:59:00,
2013-02-10 17:04:00,33.5,30.0,29.47,WSW,258,10.8,13.0,87,0.00,-SN,SKC,0.02,WeatherDisplay:10.37,2013-02-10 23:04:00,
2013-02-10 17:09:00,33.1,29.9,29.47,West,280,15.1,22.0,88,0.00,-SN,SKC,0.02,WeatherDisplay:10.37,2013-02-10 23:09:00,
2013-02-10 17:14:00,32.9,29.7,29.48,WNW,287,9.9,18.4,88,0.00,-SN,SKC,0.02,WeatherDisplay:10.37,2013-02-10 23:14:00,
2013-02-10 17:19:00,33.0,29.8,29.48,WNW,285,11.3,16.1,88,0.00,-SN,SKC,0.02,WeatherDisplay:10.37,2013-02-10 23:19:00,
2013-02-10 17:24:00,33.2,29.5,29.49,WNW,291,8.2,11.5,86,0.00,-SN,SKC,0.02,WeatherDisplay:10.37,2013-02-10 23:24:00,
2013-02-10 17:29:00,33.4,28.8,29.49,West,271,14.0,18.4,83,0.00,-SN,SKC,0.02,WeatherDisplay:10.37,2013-02-10 23:29:00,
2013-02-10 17:34:00,33.5,27.7,29.50,NW,316,11.3,19.6,79,0.00,-SN,SKC,0.02,WeatherDisplay:10.37,2013-02-10 23:34:00,
2013-02-10 17:39:00,33.5,27.7,29.50,WNW,284,8.6,15.0,79,0.00,-SN,SKC,0.02,WeatherDisplay:10.37,2013-02-10 23:39:00,
2013-02-10 17:44:00,33.5,27.4,29.51,West,277,12.8,21.9,78,0.00,OVC,SKC,0.02,WeatherDisplay:10.37,2013-02-10 23:44:00,
2013-02-10 17:49:00,33.3,27.2,29.51,NW,319,13.5,15.0,78,0.00,OVC,SKC,0.02,WeatherDisplay:10.37,2013-02-10 23:49:00,
2013-02-10 17:54:00,33.3,27.2,29.52,WNW,301,5.5,13.8,78,0.00,OVC,SKC,0.02,WeatherDisplay:10.37,2013-02-10 23:54:00,
2013-02-10 17:59:00,33.2,26.8,29.53,West,280,12.2,18.0,77,0.00,OVC,SKC,0.02,WeatherDisplay:10.37,2013-02-10 23:59:00,
2013-02-10 18:04:00,33.2,26.5,29.53,West,277,13.1,20.0,76,0.00,OVC,SKC,0.02,WeatherDisplay:10.37,2013-02-11 00:04:00,
2013-02-10 18:09:00,33.1,26.0,29.54,WNW,288,9.4,22.0,75,0.00,OVC,SKC,0.02,WeatherDisplay:10.37,2013-02-11 00:09:00,
2013-02-10 18:14:00,32.9,26.2,29.54,WNW,298,10.0,16.1,76,0.00,OVC,SKC,0.02,WeatherDisplay:10.37,2013-02-11 00:14:00,
2013-02-10 18:19:00,32.8,26.4,29.55,West,280,10.2,23.0,77,0.00,OVC,SKC,0.02,WeatherDisplay:10.37,2013-02-11 00:19:00,
2013-02-10 18:24:00,32.8,26.7,29.55,WNW,283,7.9,17.3,78,0.00,OVC,SKC,0.02,WeatherDisplay:10.37,2013-02-11 00:24:00,
2013-02-10 18:29:00,32.7,26.3,29.56,WNW,287,7.5,11.5,77,0.00,OVC,SKC,0.02,WeatherDisplay:10.37,2013-02-11 00:29:00,
2013-02-10 18:34:00,32.7,26.0,29.56,NW,307,7.6,17.3,76,0.00,OVC,SKC,0.02,WeatherDisplay:10.37,2013-02-11 00:34:00,
2013-02-10 18:39:00,32.7,26.0,29.57,West,268,9.7,11.5,76,0.00,OVC,SKC,0.02,WeatherDisplay:10.37,2013-02-11 00:39:00,
2013-02-10 18:44:00,32.7,26.0,29.57,WNW,299,10.0,17.3,76,0.00,OVC,SKC,0.02,WeatherDisplay:10.37,2013-02-11 00:44:00,
2013-02-10 18:49:00,32.7,26.0,29.58,NW,315,10.2,19.6,76,0.00,OVC,SKC,0.02,WeatherDisplay:10.37,2013-02-11 00:49:00,
2013-02-10 18:54:00,32.6,25.9,29.58,West,271,6.1,10.4,76,0.00,OVC,SKC,0.02,WeatherDisplay:10.37,2013-02-11 00:54:00,
2013-02-10 18:59:00,32.5,26.1,29.59,West,261,8.9,13.8,77,0.00,OVC,SKC,0.02,WeatherDisplay:10.37,2013-02-11 00:59:00,
2013-02-10 19:04:00,32.4,25.7,29.59,WNW,285,11.9,17.3,76,0.00,OVC,SKC,0.02,WeatherDisplay:10.37,2013-02-11 01:04:00,
2013-02-10 19:09:00,32.4,25.7,29.60,West,281,7.3,12.7,76,0.00,OVC,SKC,0.02,WeatherDisplay:10.37,2013-02-11 01:09:00,
2013-02-10 19:14:00,32.3,25.6,29.60,NW,305,11.8,23.0,76,0.00,OVC,SKC,0.02,WeatherDisplay:10.37,2013-02-11 01:14:00,
2013-02-10 19:19:00,32.3,25.6,29.60,WNW,290,9.2,16.0,76,0.00,OVC,SKC,0.02,WeatherDisplay:10.37,2013-02-11 01:19:00,
2013-02-10 19:24:00,32.2,25.5,29.61,WNW,291,14.7,28.8,76,0.00,OVC,SKC,0.02,WeatherDisplay:10.37,2013-02-11 01:24:00,
2013-02-10 19:29:00,32.1,25.4,29.61,West,278,14.1,27.6,76,0.00,OVC,SKC,0.02,WeatherDisplay:10.37,2013-02-11 01:29:00,
2013-02-10 19:34:00,32.0,25.0,29.61,West,274,16.3,28.8,75,0.00,OVC,SKC,0.02,WeatherDisplay:10.37,2013-02-11 01:34:00,
2013-02-10 19:39:00,31.9,24.9,29.61,WNW,302,11.3,21.9,75,0.00,OVC,SKC,0.02,WeatherDisplay:10.37,2013-02-11 01:39:00,
2013-02-10 19:44:00,31.9,24.9,29.62,West,276,10.2,19.6,75,0.00,OVC,SKC,0.02,WeatherDisplay:10.37,2013-02-11 01:44:00,
2013-02-10 19:49:00,31.9,24.9,29.62,WNW,283,11.5,19.6,75,0.00,OVC,SKC,0.02,WeatherDisplay:10.37,2013-02-11 01:49:00,
2013-02-10 19:54:00,31.8,25.1,29.63,West,280,14.1,23.0,76,0.00,OVC,SKC,0.02,WeatherDisplay:10.37,2013-02-11 01:54:00,
2013-02-10 19:59:00,31.7,25.0,29.63,WNW,296,11.0,21.9,76,0.00,OVC,SKC,0.02,WeatherDisplay:10.37,2013-02-11 01:59:00,
2013-02-10 20:04:00,31.6,24.6,29.64,NW,304,11.6,18.4,75,0.00,OVC,SKC,0.02,WeatherDisplay:10.37,2013-02-11 02:04:00,
2013-02-10 20:09:00,31.6,24.6,29.64,WNW,301,11.7,16.0,75,0.00,OVC,SKC,0.02,WeatherDisplay:10.37,2013-02-11 02:09:00,
2013-02-10 20:14:00,31.5,24.2,29.65,WNW,291,13.4,32.2,74,0.00,OVC,SKC,0.02,WeatherDisplay:10.37,2013-02-11 02:14:00,
2013-02-10 20:19:00,31.5,24.2,29.65,NW,304,10.1,16.1,74,0.00,OVC,SKC,0.02,WeatherDisplay:10.37,2013-02-11 02:19:00,
2013-02-10 20:24:00,31.5,24.2,29.65,WSW,255,6.8,13.8,74,0.00,OVC,SKC,0.02,WeatherDisplay:10.37,2013-02-11 02:24:00,
2013-02-10 20:29:00,31.5,24.5,29.65,WNW,300,7.8,10.0,75,0.00,OVC,SKC,0.02,WeatherDisplay:10.37,2013-02-11 02:29:00,
2013-02-10 20:34:00,31.5,24.5,29.65,NW,306,11.9,19.6,75,0.00,OVC,SKC,0.02,WeatherDisplay:10.37,2013-02-11 02:34:00,
2013-02-10 20:39:00,31.6,24.6,29.66,West,276,5.7,15.0,75,0.00,OVC,SKC,0.02,WeatherDisplay:10.37,2013-02-11 02:39:00,
2013-02-10 20:44:00,31.6,24.6,29.66,WNW,303,15.7,25.3,75,0.00,OVC,SKC,0.02,WeatherDisplay:10.37,2013-02-11 02:44:00,
2013-02-10 20:49:00,31.6,24.3,29.67,WNW,300,7.7,16.1,74,0.00,OVC,SKC,0.02,WeatherDisplay:10.37,2013-02-11 02:49:00,
2013-02-10 20:55:00,31.6,24.3,29.67,WNW,301,12.6,18.4,74,0.00,OVC,SKC,0.02,WeatherDisplay:10.37,2013-02-11 02:55:00,
2013-02-10 21:00:00,31.6,24.3,29.68,West,273,8.1,23.0,74,0.00,OVC,SKC,0.02,WeatherDisplay:10.37,2013-02-11 03:00:00,
2013-02-10 21:05:00,31.6,24.3,29.68,WNW,298,7.7,12.0,74,0.00,OVC,SKC,0.02,WeatherDisplay:10.37,2013-02-11 03:05:00,
2013-02-10 21:10:00,31.6,24.6,29.68,NW,309,6.3,13.8,75,0.00,OVC,SKC,0.02,WeatherDisplay:10.37,2013-02-11 03:10:00,
2013-02-10 21:15:00,31.5,24.5,29.68,WNW,300,9.3,17.3,75,0.00,OVC,SKC,0.02,WeatherDisplay:10.37,2013-02-11 03:15:00,
2013-02-10 21:20:00,31.5,24.8,29.69,NW,307,13.2,19.6,76,0.00,OVC,SKC,0.02,WeatherDisplay:10.37,2013-02-11 03:20:00,
2013-02-10 21:25:00,31.6,24.6,29.69,NNW,329,11.3,20.7,75,0.00,OVC,SKC,0.02,WeatherDisplay:10.37,2013-02-11 03:25:00,
2013-02-10 21:30:00,31.6,24.6,29.69,WNW,291,6.3,10.4,75,0.00,OVC,SKC,0.02,WeatherDisplay:10.37,2013-02-11 03:30:00,
2013-02-10 21:35:00,31.6,24.3,29.70,NW,304,11.5,26.5,74,0.00,OVC,SKC,0.02,WeatherDisplay:10.37,2013-02-11 03:35:00,
2013-02-10 21:40:00,31.6,24.3,29.70,NW,304,13.1,19.0,74,0.00,OVC,SKC,0.02,WeatherDisplay:10.37,2013-02-11 03:40:00,
2013-02-10 21:45:00,31.5,24.2,29.71,West,281,5.9,10.4,74,0.00,OVC,SKC,0.02,WeatherDisplay:10.37,2013-02-11 03:45:00,
2013-02-10 21:50:00,31.4,24.1,29.72,NW,318,10.4,19.6,74,0.00,OVC,SKC,0.02,WeatherDisplay:10.37,2013-02-11 03:50:00,
2013-02-10 21:55:00,31.3,24.0,29.72,NW,308,7.8,12.0,74,0.00,OVC,SKC,0.02,WeatherDisplay:10.37,2013-02-11 03:55:00,
2013-02-10 22:00:00,31.2,23.9,29.73,WSW,245,10.4,13.0,74,0.00,OVC,SKC,0.02,WeatherDisplay:10.37,2013-02-11 04:00:00,
2013-02-10 22:05:00,31.2,23.9,29.73,WNW,286,10.1,20.7,74,0.00,OVC,SKC,0.02,WeatherDisplay:10.37,2013-02-11 04:05:00,
2013-02-10 22:10:00,31.2,24.2,29.73,WNW,303,12.4,18.4,75,0.00,OVC,SKC,0.02,WeatherDisplay:10.37,2013-02-11 04:10:00,
2013-02-10 22:15:00,31.1,24.1,29.74,WNW,286,11.3,18.4,75,0.00,OVC,SKC,0.02,WeatherDisplay:10.37,2013-02-11 04:15:00,
2013-02-10 22:20:00,31.1,24.1,29.75,WNW,290,11.7,16.0,75,0.00,OVC,SKC,0.02,WeatherDisplay:10.37,2013-02-11 04:20:00,
2013-02-10 22:25:00,31.1,24.1,29.76,WNW,295,12.8,21.9,75,0.00,OVC,SKC,0.02,WeatherDisplay:10.37,2013-02-11 04:25:00,
2013-02-10 22:30:00,31.0,23.7,29.76,NW,307,8.3,19.6,74,0.00,OVC,SKC,0.02,WeatherDisplay:10.37,2013-02-11 04:30:00,
2013-02-10 22:35:00,30.9,23.6,29.77,NW,304,11.2,19.6,74,0.00,OVC,SKC,0.02,WeatherDisplay:10.37,2013-02-11 04:35:00,
2013-02-10 22:40:00,30.8,23.5,29.77,NW,310,12.9,23.0,74,0.00,OVC,SKC,0.02,WeatherDisplay:10.37,2013-02-11 04:40:00,
2013-02-10 22:45:00,30.6,23.6,29.77,WNW,288,5.3,10.4,75,0.00,OVC,SKC,0.02,WeatherDisplay:10.37,2013-02-11 04:45:00,
2013-02-10 22:50:00,30.5,23.5,29.77,WNW,291,11.4,15.0,75,0.00,OVC,SKC,0.02,WeatherDisplay:10.37,2013-02-11 04:50:00,
2013-02-10 22:55:00,30.4,23.4,29.77,NW,310,10.9,23.0,75,0.00,OVC,SKC,0.02,WeatherDisplay:10.37,2013-02-11 04:55:00,
2013-02-10 23:00:00,30.3,23.6,29.77,West,281,12.3,18.0,76,0.00,OVC,SKC,0.02,WeatherDisplay:10.37,2013-02-11 05:00:00,
2013-02-10 23:05:00,30.2,23.5,29.78,WNW,297,8.3,17.3,76,0.00,OVC,SKC,0.02,WeatherDisplay:10.37,2013-02-11 05:05:00,
2013-02-10 23:10:00,30.1,23.4,29.79,WNW,290,8.3,23.0,76,0.00,OVC,SKC,0.02,WeatherDisplay:10.37,2013-02-11 05:10:00,
2013-02-10 23:15:00,30.1,23.4,29.79,WNW,301,10.3,18.4,76,0.00,OVC,SKC,0.02,WeatherDisplay:10.37,2013-02-11 05:15:00,
2013-02-10 23:20:00,30.1,23.4,29.80,NNW,340,10.7,13.8,76,0.00,OVC,SKC,0.02,WeatherDisplay:10.37,2013-02-11 05:20:00,
2013-02-10 23:25:00,30.0,23.7,29.80,West,266,14.9,18.0,77,0.00,OVC,SKC,0.02,WeatherDisplay:10.37,2013-02-11 05:25:00,
2013-02-10 23:30:00,30.0,23.4,29.80,NW,320,9.5,21.9,76,0.00,OVC,SKC,0.02,WeatherDisplay:10.37,2013-02-11 05:30:00,
2013-02-10 23:35:00,30.0,23.4,29.81,West,277,12.8,17.0,76,0.00,OVC,SKC,0.02,WeatherDisplay:10.37,2013-02-11 05:35:00,
2013-02-10 23:40:00,30.0,23.4,29.81,NW,304,6.6,17.3,76,0.00,OVC,SKC,0.02,WeatherDisplay:10.37,2013-02-11 05:40:00,
2013-02-10 23:45:00,30.0,23.4,29.81,NNW,335,10.1,16.1,76,0.00,OVC,SKC,0.02,WeatherDisplay:10.37,2013-02-11 05:45:00,
2013-02-10 23:50:00,30.0,23.4,29.81,NW,311,12.8,18.4,76,0.00,OVC,SKC,0.02,WeatherDisplay:10.37,2013-02-11 05:50:00,
2013-02-10 23:55:00,29.9,22.9,29.82,NW,305,10.2,13.8,75,0.00,OVC,SKC,0.02,WeatherDisplay:10.37,2013-02-11 05:55:00,